WFO RAH Logo

WFO RAH Text Data

Data updated Mon Apr 17 2006


ASUS42 KRAH 221210
RWRRAH
NORTH CAROLINA WEATHER ROUNDUP
NATIONAL WEATHER SERVICE RALEIGH NC
700 AM EST THU FEB 22 2007

NOTE: "FAIR" INDICATES FEW OR NO CLOUDS BELOW 12,000 FEET WITH NO
SIGNIFICANT WEATHER AND/OR OBSTRUCTIONS TO VISIBILITY.

NCZ001-053-055-056-065-067-221300-
WESTERN NORTH CAROLINA
  
CITY           SKY/WX    TMP DP  RH WIND       PRES   REMARKS
ASHEVILLE      CLEAR     43  39  86 N3          N/A                   
JEFFERSON      CLEAR     46  28  49 W36G51    29.81F                  
HICKORY        CLEAR     52  39  61 W5        29.90S                  
RUTHERFORDTON  PTCLDY    50  41  71 W10       29.92S                  
MOUNT AIRY     CLEAR     43  39  87 CALM      29.86F                  
$$
 
NCZ021-022-025-041-071-084-088-221300-
CENTRAL NORTH CAROLINA
  
CITY           SKY/WX    TMP DP  RH WIND       PRES   REMARKS
CHARLOTTE      CLEAR     49  47  93 VRB5      29.92R FOG              
GREENSBORO     CLEAR     46  43  89 VRB5      29.88S FOG              
WINSTON-SALEM  CLEAR     49  43  80 W3        29.89R                  
RALEIGH-DURHAM FOG       53  51  93 VRB5      29.86R VSB 1/4          
FORT BRAGG     CLOUDY    54  54 100 SW5       29.87S FOG              
FAYETTEVILLE   CLOUDY    55  54  94 SW8       29.88R FOG              
$$
 
NCZ011-015-027-028-043-044-047-080-103-221300-
NORTHEASTERN NORTH CAROLINA
  
CITY           SKY/WX    TMP DP  RH WIND       PRES   REMARKS
ROANOKE RAPIDS FOG       46  45  96 CALM      29.86F VSB 1/4          
ROCKY MT-WILSO FOG       50  50 100 CALM      29.85S VSB 1/4          
GREENVILLE     CLOUDY    54  50  87 SW5       29.87S FOG              
WASHINGTON     MOCLDY    52  46  82 CALM      29.86S FOG              
ELIZABETH CITY CLOUDY    47  45  93 CALM      29.85S FOG              
MANTEO         MOCLDY    54  46  76 S8        29.83F                  
CAPE HATTERAS  MOCLDY    48  45  89 NW3       29.87F                  
$$
 
NCZ078-087-090-091-093-098-101-221300-
SOUTHEASTERN NORTH CAROLINA
  
CITY           SKY/WX    TMP DP  RH WIND       PRES   REMARKS
LUMBERTON      CLOUDY    55  54  94 W8        29.90R FOG              
GOLDSBORO      FOG       54  50  87 SW5       29.86S VSB 1            
KENANSVILLE    CLOUDY    55  55 100 SW3       29.89S FOG              
NEW BERN       MOCLDY    50  48  93 S3        29.88S FOG              
CHERRY POINT   CLOUDY    50  48  93 CALM      29.88F FOG              
BEAUFORT       CLOUDY    50  49  96 S5        29.89S FOG              
JACKSONVILLE   PTCLDY    55  53  93 SW6       29.89S FOG              
WILMINGTON     CLOUDY    54  52  94 SW5       29.90S FOG              
$$